Home   Weather   St. Louis   Past weeks
Flag for USA

Past Weather in St. Louis, Missouri, USA — Yesterday and Last 2 Weeks

Now
35 °F

Clear.


Feels Like: 30 °F
Forecast: 54 / 34 °F
Wind: 6 mph from Southeast

Location: Lambert-St. Louis International Airport

Current Time: Mar 19, 2019 at 1:49:57 am

Latest Report: Mar 19, 2019 at 12:51 am


Visibility: 10 mi

Pressure: 30.40 "Hg

Humidity: 64%

Dew Point: 24 °F

Location of St. LouisLocation

Past Weather in St. Louis — Graph

°F

St. Louis Temperature Yesterday

Maximum temperature yesterday: 52 °F (at 4:51 pm)
Minimum temperature yesterday: 33 °F (at 5:51 am)
Average temperature yesterday: 42 °F

High & Low Weather Summary for the Past Weeks

 TemperatureHumidityPressure
High69 °F (Mar 13, 3:51 pm)97% (Mar 9, 10:12 am)30.53 "Hg (Mar 9, 10:12 am)
Low2 °F (Mar 4, 6:51 am)26% (Mar 11, 4:51 pm)29.34 "Hg (Mar 9, 3:58 pm)
Average38 °F62%30.17 "Hg
* Reported Mar 3 10:51 pm — Mar 18 11:51 pm, St. Louis. Weather by CustomWeather, © 2019

Note: Actual official high and low records may vary slightly from our data, if they occured in-between our weather recording intervals... More about our weather records

Advertising

St. Louis Weather History for the Previous 24 Hours

Scroll right to see more
 ConditionsComfort  
Time TempWeatherWind HumidityBarometerVisibility
11:51 pm
Mon, Mar 18
39 °FPassing clouds.5 mph55%30.41 "Hg10 mi
10:51 pm40 °FPassing clouds.7 mph53%30.41 "Hg10 mi
9:51 pm42 °FPassing clouds.No wind45%30.42 "Hg10 mi
8:51 pm42 °FPassing clouds.6 mph41%30.41 "Hg10 mi
7:51 pm47 °FPassing clouds.3 mph30%30.40 "Hg10 mi
6:51 pm48 °FPartly sunny.3 mph28%30.40 "Hg10 mi
5:51 pm50 °FPartly sunny.5 mph26%30.39 "Hg10 mi
4:51 pm52 °FScattered clouds.3 mph28%30.39 "Hg10 mi
3:51 pm51 °FPassing clouds.8 mph29%30.40 "Hg10 mi
2:51 pm50 °FPassing clouds.6 mph29%30.41 "Hg10 mi
1:51 pm50 °FPassing clouds.7 mph29%30.44 "Hg10 mi
12:51 pm48 °FPassing clouds.6 mph43%30.46 "Hg10 mi
11:51 am48 °FPassing clouds.9 mph46%30.47 "Hg10 mi
10:51 am44 °FPassing clouds.5 mph55%30.48 "Hg10 mi
9:51 am41 °FSunny.5 mph62%30.47 "Hg10 mi
8:51 am38 °FPassing clouds.6 mph70%30.46 "Hg10 mi
7:51 am34 °FPassing clouds.6 mph73%30.44 "Hg10 mi
6:51 am33 °FPassing clouds.No wind78%30.42 "Hg10 mi
5:51 am33 °FPassing clouds.No wind78%30.40 "Hg10 mi
4:51 am34 °FPassing clouds.No wind76%30.38 "Hg10 mi
3:51 am34 °FPassing clouds.No wind76%30.38 "Hg10 mi
2:51 am35 °FPassing clouds.3 mph72%30.39 "Hg10 mi
1:51 am37 °FPassing clouds.No wind67%30.38 "Hg10 mi
Weather by CustomWeather, © 2019

See weather overview